Weather History for West Palm Beach, FL

Change the Weather History Date:

Sunday, March 2, 2014

  Actual Average Record
Temperature  
Mean Temperature 69 °F 69 °F  
Max Temperature 79 °F 78 °F 92 °F (2003)
Min Temperature 59 °F 61 °F 26 °F (1920)
Degree Days  
Heating Degree Days 0 1  
Month to date heating degree days 0 2  
Since 1 July heating degree days 115 207  
Cooling Degree Days 4 5  
Month to date cooling degree days 7 10  
Year to date cooling degree days 353 245  
Growing Degree Days 19 (Base 50)    
Moisture  
Dew Point 58 °F    
Average Humidity 68    
Maximum Humidity 90    
Minimum Humidity 45    
Precipitation  
Precipitation 0.00 in 0.12 in 3.83 in (1947)
Month to date precipitation 0.00 0.24  
Year to date precipitation 11.48 6.19  
Snow  
Snow 0.00 in - - ()
Month to date snowfall 0.0  
Since 1 July snowfall 0.0  
Snow Depth 0.00 in    
Sea Level Pressure  
Sea Level Pressure 30.13 in    
Wind  
Wind Speed 7 mph (ESE)    
Max Wind Speed 16 mph    
Max Gust Speed 23 mph    
Visibility 10 miles    
Events      
T = Trace of Precipitation, MM = Missing Value Source: NWS Daily Summary

Daily Weather History Graph

Daily Weather History Graph

Search for Another Location

Airport:

Trip Planner

Search our weather history database for the weather conditions in past years. The results will help you decide how hot, cold, wet, or windy it might be!

Date:

Astronomy

Mar. 02, 2014 Rise Set
Actual Time 6:43 AM EST 6:22 PM EST
Civil Twilight 6:19 AM EST 6:45 PM EST
Nautical Twilight 5:53 AM EST 7:12 PM EST
Astronomical Twilight 5:26 AM EST 7:39 PM EST
Moon 7:24 AM EST (3/2) 8:01 PM EST (3/2)
Length of Visible Light 12h 25m
Length of Day
11h 38m
Waxing Crescent, 3% of the Moon is Illuminated
Mar 2
Waxing Crescent
Mar 8
First Quarter
Mar 16
Full
Mar 23
Last Quarter
Mar 30
New

Hourly Weather History & Observations

Time (EST) Temp. Dew Point Humidity Pressure Visibility Wind Dir Wind Speed Gust Speed Precip Events Conditions
12:53 AM 71.1 °F 57.0 °F 61% 30.14 in 10.0 mi East 5.8 mph - N/A   Partly Cloudy
1:53 AM 70.0 °F 55.9 °F 61% 30.13 in 10.0 mi ENE 5.8 mph - N/A   Partly Cloudy
2:53 AM 70.0 °F 57.0 °F 63% 30.12 in 10.0 mi ENE 6.9 mph - N/A   Partly Cloudy
3:53 AM 62.1 °F 57.0 °F 84% 30.12 in 10.0 mi Calm Calm - N/A   Partly Cloudy
4:53 AM 60.1 °F 57.0 °F 90% 30.12 in 10.0 mi NNW 3.5 mph - N/A   Partly Cloudy
5:53 AM 61.0 °F 57.0 °F 87% 30.13 in 10.0 mi Calm Calm - N/A   Partly Cloudy
6:53 AM 62.1 °F 55.9 °F 80% 30.14 in 10.0 mi Calm Calm - N/A   Scattered Clouds
7:53 AM 63.0 °F 59.0 °F 87% 30.16 in 10.0 mi Calm Calm - N/A   Scattered Clouds
8:53 AM 75.0 °F 57.0 °F 53% 30.18 in 10.0 mi East 10.4 mph - N/A   Scattered Clouds
9:53 AM 75.9 °F 57.9 °F 54% 30.19 in 10.0 mi East 11.5 mph - N/A   Scattered Clouds
10:53 AM 77.0 °F 57.9 °F 52% 30.20 in 10.0 mi ESE 12.7 mph - N/A   Scattered Clouds
11:53 AM 78.1 °F 55.9 °F 46% 30.18 in 10.0 mi ESE 12.7 mph - N/A   Scattered Clouds
12:53 PM 78.1 °F 57.9 °F 50% 30.15 in 10.0 mi SE 13.8 mph - N/A   Scattered Clouds
1:53 PM 77.0 °F 59.0 °F 54% 30.12 in 10.0 mi East 12.7 mph 18.4 mph N/A   Scattered Clouds
2:53 PM 77.0 °F 60.1 °F 56% 30.10 in 10.0 mi ESE 8.1 mph 18.4 mph N/A   Scattered Clouds
3:53 PM 77.0 °F 60.1 °F 56% 30.09 in 10.0 mi East 9.2 mph - N/A   Scattered Clouds
4:53 PM 77.0 °F 59.0 °F 54% 30.09 in 10.0 mi SE 13.8 mph - N/A   Scattered Clouds
5:53 PM 75.9 °F 60.1 °F 58% 30.09 in 10.0 mi ESE 13.8 mph - N/A   Mostly Cloudy
6:53 PM 73.9 °F 60.1 °F 62% 30.09 in 10.0 mi SE 9.2 mph - N/A   Mostly Cloudy
7:53 PM 73.0 °F 59.0 °F 61% 30.10 in 10.0 mi SSE 6.9 mph - N/A   Scattered Clouds
8:53 PM 73.0 °F 59.0 °F 61% 30.10 in 10.0 mi SE 5.8 mph - N/A   Partly Cloudy
9:53 PM 72.0 °F 57.9 °F 61% 30.10 in 10.0 mi SE 5.8 mph - N/A   Partly Cloudy
10:53 PM 71.1 °F 57.9 °F 63% 30.09 in 10.0 mi SSE 3.5 mph - N/A   Partly Cloudy
11:53 PM 70.0 °F 57.9 °F 65% 30.08 in 10.0 mi SSE 4.6 mph - N/A   Partly Cloudy